Regional Weather Roundup
Issued by NWS Upton, NY

Current Version | Previous Version | Graphics & Text | Print | Product List | Glossary Off
Versions: 1 2 3 4 5 6 7 8 9 10 11 12 13 14 15 16 17 18 19 20 21 22 23 24 25 26

000
ASUS41 KOKX 230905
RWROKX

REGIONAL WEATHER ROUNDUP
NATIONAL WEATHER SERVICE NEW YORK NY
500 AM EDT WED APR 23 2014

NOTE: "FAIR" INDICATES FEW OR NO CLOUDS BELOW 12,000 FEET WITH NO
SIGNIFICANT WEATHER AND/OR OBSTRUCTIONS TO VISIBILITY.

NYZ071-072-176-178-NJZ106-104-231000-
NEW YORK CITY METRO AREA


CITY           SKY/WX    TMP DP  RH WIND       PRES   REMARKS
CENTRAL PARK   CLOUDY    55  42  61 VRB6      29.54R
LAGUARDIA APRT MOCLDY    54  41  61 NW18G24   29.51R
KENNEDY INTL   MOCLDY    56  42  59 NW17      29.52R
NEWARK/LIBERTY CLOUDY    55  44  66 NW18G29   29.52R
TETERBORO      CLOUDY    55  42  61 NW18G24   29.51R
$$

NYZ177-179-078>081-231000-
LONG ISLAND NEW YORK

CITY           SKY/WX    TMP DP  RH WIND       PRES   REMARKS
FARMINGDALE    CLOUDY    54  47  77 NW8       29.49S
ISLIP          CLOUDY    54  49  83 NW12      29.46S
SHIRLEY        MOCLDY    49  47  93 NW5       29.48R FOG
WESTHAMPTON    MOCLDY    41  39  93 CALM      29.48R FOG
MONTAUK POINT    N/A     48  45  89 CALM      29.46F
$$

NYZ052-065-067-231000-
HUDSON VALLEY

CITY           SKY/WX    TMP DP  RH WIND       PRES   REMARKS
WHITE PLAINS   CLOUDY    52  44  74 NW15G25   29.49R
NEWBURGH       CLOUDY    50  43  76 NW16      29.53R
MONTGOMERY     CLOUDY    48  40  73 NW9G21    29.53R
POUGHKEEPSIE   CLOUDY    50  45  83 N10       29.51R
ALBANY         CLOUDY    45  36  70 NW14G24   29.55F
$$

NJZ001-105-106-008-010-013-015-019>022-104-231000-
NEW JERSEY

CITY           SKY/WX    TMP DP  RH WIND       PRES   REMARKS
NEWARK/LIBERTY CLOUDY    55  44  66 NW18G29   29.52R
TETERBORO      CLOUDY    55  42  61 NW18G24   29.51R
CALDWELL       CLOUDY    50  40  68 NW10G24   29.55R
MORRISTOWN     CLOUDY    52  39  62 NW13G21   29.56R
SOMERVILLE     CLOUDY    51  35  54 NW17G25   29.56R
LINDEN         CLOUDY    54  40  58 W13G20    29.55R
SUSSEX         CLOUDY    49  36  61 CALM      29.56S
ANDOVER          N/A     47  34  60 CALM      29.58R
TRENTON        CLOUDY    49  31  49 NW21G36   29.58S
MILLVILLE      MOCLDY    50  33  52 NW15G23   29.65R
ATLANTIC CITY  MOCLDY    50  32  50 W21G29    29.61R
WRIGHTSTOWN    MOCLDY    49  33  52 W15G26    29.58R
TOMS RIVER     MOCLDY    50  32  50 W16G22    29.58R
BELMAR         CLOUDY    52  32  46 W15G23    29.55R
$$

PAZ047>061-062-071-231000-
EASTERN PENNSYLVANIA

CITY           SKY/WX    TMP DP  RH WIND       PRES   REMARKS
PHILADELPHIA   PTCLDY    50  31  48 NW13      29.65R
ALLENTOWN      CLOUDY    48  32  53 W9        29.61S
SCRANTON       CLOUDY    44  33  65 W18       29.61R
$$

CTZ002-004>006-009-010-012-RIZ004-006-007-MAZ004-011-015-231000-
SOUTHERN NEW ENGLAND
 IN CT

CITY           SKY/WX    TMP DP  RH WIND       PRES   REMARKS
BRADLEY INTL   MOCLDY    51  42  71 NW13G20   29.47S
HARTFORD       MOCLDY    52  41  66 N9G17     29.48S
DANBURY        CLOUDY    50  44  80 N12       29.50S
WTRBRY/OXFORD  CLOUDY    48  41  76 N7        29.51R
BRIDGEPORT     CLOUDY    52  49  89 N3        29.47S
MERIDEN        CLOUDY    52  43  71 N7        29.48S
NEW HAVEN      CLOUDY    53  48  83 N8        29.47S
CHESTER        PTSUNNY   52  46  82 N9        29.46F
GROTON         MOCLDY    45  45 100 CALM      29.45S FOG
WILLIMANTIC    CLOUDY    49  48  97 VRB3      29.47R FOG

 IN RI

CITY           SKY/WX    TMP DP  RH WIND       PRES   REMARKS
PROVIDENCE     MOCLDY    48  47  96 CALM      29.44F
BLOCK ISLAND   PTCLDY    45  43  93 SW3       29.44F
WESTERLY       PTCLDY    45  45 100 CALM      29.46S FOG

 IN MA

CITY           SKY/WX    TMP DP  RH WIND       PRES   REMARKS
BOSTON         CLOUDY    51  49  92 S7        29.44S
WORCESTER      MOCLDY    50  47  89 NW6       29.44S
WESTFIELD      RAIN      49  42  77 NW15G22   29.49R
PROVINCETOWN   MOCLDY    46  45  93 MISG      29.45S
NANTUCKET      CLEAR     44  42  93 SW5       29.45F
$$

ANZ330-335-338-340-345-350-353-355-231000-
COASTAL MARINE OBSERVATIONS


STATION/POSITION TIME  SKY/WX   TEMP    WIND        PRES    VSBY  WAVE
                                AIR SEA DIR/SP/G                  HT/PER
                 (UTC)          (F)     (DEG/KT/KT) (MB)    (MI)  (FT/S)
NY HARB ENTRANCE 0900            51 47  VRB 17/ 19   999.2
4S FIRE IS       0800               47                N/A           3/ 8
23SW MTP         0900            47 42  230/  6/  8  997.6          3/ 8
HUDSON CANYON    0800            49 45  260/ 12/ 14  999.4          4/ 8
EXECUTION ROCKS  0900            53 46  300/ 14/ 17   N/A
WESTERN LI SOUND 0900            53     290/ 10/ 14   N/A           0
CENTRAL LI SOUND 0800            45 43   80/  4/  4   N/A           0
EASTERN LI SOUND NOT AVBL
ROBBINS REEF     0900            54     280/ 15/ 18   N/A
$$


>>>>>>>>>>>>>>>>>>>>>>>>>>>> KEY <<<<<<<<<<<<<<<<<<<<<<<<<<<
>                                                          <
>     SKY/WX - SKY CONDITION/PRESENT WEATHER               <
>     TMP    - TEMPERATURE IN FAHRENHEIT                   <
>     DP     - DEWPOINT IN FAHRENHEIT                      <
>     RH     - RELATIVE HUMIDITY IN PERCENT                <
>     WIND   - DIRECTION AND SPEED IN MPH                  <
>     PRES   - MEAN SEA LEVEL PRESSURE IN INCHES OF HG     <
>     WCI    - WIND CHILL INDEX                            <
>     VSB    - VISIBILITY IN MILES                         <
>     HX     - HEAT INDEX                                  <
>     TC     - TEMPERATURE IN CELSIUS                      <
>     VRB    - VARIABLE WIND DIRECTION                     <
>                                                          <
>>>>>>>>>>>>>>>>>>>>>>>>>>>> KEY <<<<<<<<<<<<<<<<<<<<<<<<<<<





USA.gov is the U.S. government's official web portal to all federal, state and local government web resources and services.